SL-12 R/B(2)

Satellite information

Favourite Embed

Satellite Type and Status

ROCKET BODYIN ORBIT

Key statistics

Satellite SL-12 R/B(2) at a glance.

Uptime

12142

Days in orbit

Revolutions

≈ 2.1

Per day

Orbit

MEO

Medium Earth Orbit

Inclination

64.3

Latest

Satellite identification and parameters

Extended collection of information and parameters for SL-12 R/B(2).

Object identification

Identified? True

Debris? False

Object name: SL-12 R/B(2)

International designator: 1992-047F

Object number (NORAD): 22061

Object ID (CCSDS): 22061

Country: COMMONWEALTH OF INDEPENDENT STATES (CIS)

Current information (Y/N): Y

RCS size: LARGE

Orbital parameters

Period: 675.004 minutes

Inclination: 64.2789 deg

SMA: 25489.671 km

Apoapsis: 19119.719 km

Periapsis: 19103.352 km

RAAN: 309.3668 deg

Eccentricy: 0.00032104

Argument of periapsis: 272.855 deg

Mean anomaly: 86.5212 deg

Mean motion: 2.13332208 rev/day

Mean motion (dot): -0.00000009 rev/day2

B* drag term: 0.0 1/REarth

Two-line elements (TLE)

Creation date: Oct. 27, 2025, 2:46 a.m.

Reference frame: TEME

Reference center: EARTH

Epoch: Oct. 26, 2025, 6:15 p.m. UTC

TLE line 0: 0 SL-12 R/B(2)

TLE line 1: 1 22061U 92047F 25299.76068466 -.00000009 00000-0 00000-0 0 9993

TLE line 2: 2 22061 64.2789 309.3668 0003210 272.8550 86.5212 2.13332208258912

Live tracking on map

Real-time ground track for satellite SL-12 R/B(2).

In-orbit conjunctions

A list of the most updated potential collisions computed for object SL-12 R/B(2).

Target Orbit TCA Probability of collision Miss distance Type
SL-12 R/B(2) MEO 2025-09-17 19:01:02 TBA 1471.0 (m) ROCKET BODY
COSMOS 2235 (GLONASS) MEO 2025-06-13 16:44:28 TBA 4638.0 (m) PAYLOAD
FREGAT R/B MEO 2025-02-05 23:07:03 TBA 3949.0 (m) ROCKET BODY
SL-12 R/B(2) MEO 2024-10-23 04:53:52 TBA 2671.0 (m) ROCKET BODY
SL-12 R/B(2) MEO 2024-09-03 11:32:10 TBA 4513.0 (m) ROCKET BODY

Associated space launch

GLONASS navigation satellites

SL-12 R/B(2) was lifted into orbit during the mission ‘Proton | Uragan 48 to 50’, on board a Proton space rocket.

The launch took place on July 30, 1992, 1:59 a.m. from 81/23 (81L).

For more information about the launch, click the button.

Launch to space Proton | Uragan 48 to 50
Proton | Uragan 48 to 50

Agency: N/A

Status: Launch Successful

Launch date: July 30, 1992, 1:59 a.m. UTC

Rocket: Proton

Launch pad: 81/23 (81L)

Location: Baikonur Cosmodrome, Republic of Kazakhstan

...

Latest news about this satellite

There are no fresh news available about this satellite. Check back as we update our databases every day.


Newsletter sign-up

Weekly statistics, charts and insights to help you stay on top of the space industry.